Weather History for Roosevelt Roads, PR

Change the Weather History Date:

Wednesday, October 31, 2012

  Actual Average Record
Temperature  
Mean Temperature 82 °F -  
Max Temperature 89 °F 84 °F 89 °F (2012)
Min Temperature 75 °F 71 °F 46 °F (1997)
Cooling Degree Days 17    
Growing Degree Days 32 (Base 50)    
Moisture  
Dew Point 75 °F    
Average Humidity 82    
Maximum Humidity 97    
Minimum Humidity 66    
Precipitation  
Precipitation 0.00 in - - ()
Sea Level Pressure  
Sea Level Pressure 29.96 in    
Wind  
Wind Speed 2 mph (ENE)    
Max Wind Speed 7 mph    
Max Gust Speed -    
Visibility 9 miles    
Events      
Averages and records for this station are not official NWS values.
T = Trace of Precipitation, MM = Missing Value Source: NWS Daily Summary

Daily Weather History Graph

Daily Weather History Graph

Search for Another Location

Airport:

Trip Planner

Search our weather history database for the weather conditions in past years. The results will help you decide how hot, cold, wet, or windy it might be!

Date:

Astronomy

Oct. 31, 2012 Rise Set
Actual Time 6:21 AM AST 5:50 PM AST
Civil Twilight 5:59 AM AST 6:12 PM AST
Nautical Twilight 5:33 AM AST 6:38 PM AST
Astronomical Twilight 5:07 AM AST 7:04 PM AST
Moon 7:13 PM AST (10/31) 7:45 AM AST (10/31)
Length of Visible Light 12h 13m
Length of Day
11h 28m
Full, 97% of the Moon is Illuminated
Oct 31
Full
Nov 6
Last Quarter
Nov 13
New
Nov 20
First Quarter
Nov 28
Full

Hourly Weather History & Observations

Time (AST) Temp. Heat Index Dew Point Humidity Pressure Visibility Wind Dir Wind Speed Gust Speed Precip Events Conditions
12:53 AM 75.9 °F - 75.0 °F 97% 29.97 in 9.0 mi Calm Calm - N/A   Clear
1:53 AM 77.0 °F - 75.0 °F 94% 29.95 in 9.0 mi Calm Calm - N/A   Clear
2:53 AM 77.0 °F - 75.0 °F 94% 29.94 in 7.0 mi Calm Calm - N/A   Scattered Clouds
3:04 AM 77.0 °F - 75.2 °F 94% 29.93 in 5.0 mi Calm Calm - N/A   Mostly Cloudy
3:19 AM 77.0 °F - 75.2 °F 94% 29.93 in 5.0 mi Calm Calm - N/A   Scattered Clouds
3:37 AM 77.0 °F - 75.2 °F 94% 29.93 in 7.0 mi Calm Calm - N/A   Mostly Cloudy
3:53 AM 78.1 °F - 75.0 °F 90% 29.93 in 6.0 mi Calm Calm - N/A   Scattered Clouds
4:50 AM 77.0 °F - 75.2 °F 94% 29.93 in 4.0 mi Calm Calm - N/A   Mostly Cloudy
4:53 AM 77.0 °F - 75.0 °F 94% 29.93 in 5.0 mi SW 3.5 mph - N/A   Mostly Cloudy
5:03 AM 77.0 °F - 75.2 °F 94% 29.93 in 5.0 mi WSW 4.6 mph - N/A   Scattered Clouds
5:53 AM 75.9 °F - 75.0 °F 97% 29.95 in 6.0 mi Calm Calm - N/A   Clear
6:53 AM 75.9 °F - 73.9 °F 94% 29.96 in 6.0 mi Calm Calm - N/A   Clear
7:53 AM 82.0 °F 90.2 °F 77.0 °F 85% 29.99 in 10.0 mi Calm Calm - N/A   Clear
8:53 AM 84.0 °F 91.9 °F 75.0 °F 74% 30.00 in 10.0 mi SE 3.5 mph - N/A   Scattered Clouds
9:09 AM 84.2 °F 92.3 °F 75.2 °F 74% 30.01 in 10.0 mi ESE 5.8 mph - N/A   Mostly Cloudy
9:28 AM 84.2 °F 92.3 °F 75.2 °F 74% 30.01 in 10.0 mi East 5.8 mph - N/A   Scattered Clouds
9:53 AM 86.0 °F 95.1 °F 75.0 °F 70% 30.01 in 10.0 mi ESE 6.9 mph - N/A   Partly Cloudy
10:53 AM 88.0 °F 100.2 °F 77.0 °F 70% 30.01 in 10.0 mi ENE 6.9 mph - N/A   Scattered Clouds
11:19 AM 89.6 °F 102.2 °F 77.0 °F 66% 29.99 in 10.0 mi East 6.9 mph - N/A   Scattered Clouds
11:53 AM 87.1 °F 97.3 °F 75.9 °F 69% 29.98 in 10.0 mi ENE 5.8 mph - N/A   Partly Cloudy
12:53 PM 88.0 °F 100.2 °F 77.0 °F 70% 29.94 in 10.0 mi East 6.9 mph - N/A   Partly Cloudy
1:53 PM 88.0 °F 98.5 °F 75.9 °F 67% 29.91 in 10.0 mi NE 6.9 mph - N/A   Clear
2:53 PM 87.1 °F 96.3 °F 75.0 °F 67% 29.91 in 10.0 mi Variable 5.8 mph - N/A   Clear
3:53 PM 86.0 °F 96.0 °F 75.9 °F 72% 29.92 in 10.0 mi ENE 5.8 mph - N/A   Clear
4:53 PM 84.0 °F 92.6 °F 75.9 °F 76% 29.93 in 10.0 mi NE 6.9 mph - N/A   Partly Cloudy
5:53 PM 82.0 °F 88.6 °F 75.0 °F 79% 29.95 in 10.0 mi ENE 3.5 mph - N/A   Scattered Clouds
6:53 PM 82.0 °F 88.6 °F 75.0 °F 79% 29.96 in 10.0 mi ENE 4.6 mph - N/A   Scattered Clouds
7:53 PM 82.0 °F 87.9 °F 73.9 °F 76% 29.97 in 10.0 mi ENE 5.8 mph - N/A   Partly Cloudy
8:53 PM 82.0 °F 88.6 °F 75.0 °F 79% 29.98 in 10.0 mi ENE 4.6 mph - N/A   Partly Cloudy
9:53 PM 82.0 °F 88.6 °F 75.0 °F 79% 29.98 in 10.0 mi ENE 5.8 mph - N/A   Scattered Clouds
10:28 PM 82.4 °F 89.5 °F 75.2 °F 79% 29.98 in 10.0 mi ENE 5.8 mph - N/A   Mostly Cloudy
10:53 PM 82.0 °F 89.4 °F 75.9 °F 82% 29.98 in 10.0 mi East 4.6 mph - N/A   Scattered Clouds
11:53 PM 81.0 °F 86.7 °F 75.0 °F 82% 29.97 in 10.0 mi East 5.8 mph - N/A   Scattered Clouds